SB KEPS @ AMSAT $ORB13038.O
Orbital Elements 13038.OSCAR
HR AMSAT ORBITAL ELEMENTS FOR OSCAR SATELLITES
FROM WA5QGD FORT WORTH,TX February 7, 2013
BID: ORB13038.O
TO ALL RADIO AMATEURS BT
Satellite: AO-07
Catalog number: 07530
Epoch time: 13037.56641392
Element set: 600
Inclination: 101.4222 deg
RA of node: 031.8656 deg
Eccentricity: 0.0011918
Arg of perigee: 181.8850 deg
Mean anomaly: 325.6435 deg
Mean motion: 12.53594632 rev/day
Decay rate: -6.9e-07 rev/day^2
Epoch rev: 74941
Checksum: 290
Satellite: FO-29
Catalog number: 24278
Epoch time: 13038.41973365
Element set: 42
Inclination: 098.5757 deg
RA of node: 114.2483 deg
Eccentricity: 0.0350917
Arg of perigee: 140.2506 deg
Mean anomaly: 222.4918 deg
Mean motion: 13.52995841 rev/day
Decay rate: -4.1e-07 rev/day^2
Epoch rev: 81376
Checksum: 317
Satellite: SO-33
Catalog number: 25509
Epoch time: 13037.56224296
Element set: 427
Inclination: 031.4320 deg
RA of node: 087.1305 deg
Eccentricity: 0.0351561
Arg of perigee: 094.4849 deg
Mean anomaly: 054.8766 deg
Mean motion: 14.28957918 rev/day
Decay rate: 3.50e-06 rev/day^2
Epoch rev: 74619
Checksum: 321
Satellite: RS-22
Catalog number: 27939
Epoch time: 13038.56206531
Element set: 145
Inclination: 097.7983 deg
RA of node: 233.1724 deg
Eccentricity: 0.0012395
Arg of perigee: 237.4225 deg
Mean anomaly: 122.5782 deg
Mean motion: 14.64313854 rev/day
Decay rate: 4.42e-06 rev/day^2
Epoch rev: 50032
Checksum: 293
Satellite: VO-52
Catalog number: 28650
Epoch time: 13038.01963980
Element set: 337
Inclination: 097.5772 deg
RA of node: 063.2726 deg
Eccentricity: 0.0026086
Arg of perigee: 351.9672 deg
Mean anomaly: 008.1157 deg
Mean motion: 14.83553269 rev/day
Decay rate: 8.37e-06 rev/day^2
Epoch rev: 41978
Checksum: 335
Satellite: HO-68
Catalog number: 36122
Epoch time: 13038.83792173
Element set: 263
Inclination: 100.3256 deg
RA of node: 099.0683 deg
Eccentricity: 0.0007294
Arg of perigee: 292.9730 deg
Mean anomaly: 067.0604 deg
Mean motion: 13.16301851 rev/day
Decay rate: -4.4e-07 rev/day^2
Epoch rev: 15139
Checksum: 291
/EX
SB KEPS @ AMSAT $ORB13038.D
Orbital Elements 13038.MICROS
HR AMSAT ORBITAL ELEMENTS FOR THE MICROSATS
FROM WA5QGD FORT WORTH,TX February 7, 2013
BID: ORB13038.D
TO ALL RADIO AMATEURS BT
Satellite: UO-11
Catalog number: 14781
Epoch time: 13038.23582560
Element set: 96
Inclination: 097.9205 deg
RA of node: 101.3100 deg
Eccentricity: 0.0008398
Arg of perigee: 359.7914 deg
Mean anomaly: 000.3293 deg
Mean motion: 14.80747414 rev/day
Decay rate: 4.00e-06 rev/day^2
Epoch rev: 55470
Checksum: 280
Satellite: AO-16
Catalog number: 20439
Epoch time: 13037.84988753
Element set: 669
Inclination: 098.4600 deg
RA of node: 340.9895 deg
Eccentricity: 0.0011115
Arg of perigee: 178.6630 deg
Mean anomaly: 215.1778 deg
Mean motion: 14.32136533 rev/day
Decay rate: 7.0e-07 rev/day^2
Epoch rev: 20358
Checksum: 315
Satellite: LO-19
Catalog number: 20442
Epoch time: 13037.98247944
Element set: 602
Inclination: 098.4281 deg
RA of node: 343.3266 deg
Eccentricity: 0.0012258
Arg of perigee: 169.9426 deg
Mean anomaly: 250.2000 deg
Mean motion: 14.32350133 rev/day
Decay rate: 7.3e-07 rev/day^2
Epoch rev: 20379
Checksum: 281
Satellite: AO-27
Catalog number: 22825
Epoch time: 13038.85430226
Element set: 308
Inclination: 098.6057 deg
RA of node: 344.3413 deg
Eccentricity: 0.0007435
Arg of perigee: 312.3791 deg
Mean anomaly: 081.3484 deg
Mean motion: 14.29531685 rev/day
Decay rate: 6.7e-07 rev/day^2
Epoch rev: 1015
Checksum: 289
Satellite: IO-26
Catalog number: 22826
Epoch time: 13037.97425476
Element set: 64
Inclination: 098.5997 deg
RA of node: 343.7868 deg
Eccentricity: 0.0007904
Arg of perigee: 307.7663 deg
Mean anomaly: 108.8662 deg
Mean motion: 14.29812207 rev/day
Decay rate: 6.9e-07 rev/day^2
Epoch rev: 1015
Checksum: 334
Satellite: GO-32
Catalog number: 25397
Epoch time: 13038.12732795
Element set: 993
Inclination: 098.3953 deg
RA of node: 011.6587 deg
Eccentricity: 0.0000811
Arg of perigee: 009.2231 deg
Mean anomaly: 350.8966 deg
Mean motion: 14.23320339 rev/day
Decay rate: -4.0e-07 rev/day^2
Epoch rev: 75744
Checksum: 305
Satellite: NO-44
Catalog number: 26931
Epoch time: 13037.99833030
Element set: 253
Inclination: 067.0502 deg
RA of node: 235.1147 deg
Eccentricity: 0.0004926
Arg of perigee: 272.9497 deg
Mean anomaly: 087.1055 deg
Mean motion: 14.29885080 rev/day
Decay rate: -3.2e-07 rev/day^2
Epoch rev: 59281
Checksum: 305
Satellite: SO-50
Catalog number: 27607
Epoch time: 13037.80628584
Element set: 986
Inclination: 064.5588 deg
RA of node: 301.0150 deg
Eccentricity: 0.0062690
Arg of perigee: 199.0184 deg
Mean anomaly: 160.8552 deg
Mean motion: 14.72755405 rev/day
Decay rate: 2.59e-06 rev/day^2
Epoch rev: 54451
Checksum: 318
Satellite: CO-55
Catalog number: 27844
Epoch time: 13038.66099226
Element set: 574
Inclination: 098.7033 deg
RA of node: 049.6134 deg
Eccentricity: 0.0008729
Arg of perigee: 260.6526 deg
Mean anomaly: 164.3762 deg
Mean motion: 14.21156515 rev/day
Decay rate: 1.50e-06 rev/day^2
Epoch rev: 49833
Checksum: 319
Satellite: CO-57
Catalog number: 27848
Epoch time: 13038.00073043
Element set: 521
Inclination: 098.7117 deg
RA of node: 048.4077 deg
Eccentricity: 0.0008597
Arg of perigee: 269.2256 deg
Mean anomaly: 144.1264 deg
Mean motion: 14.20890105 rev/day
Decay rate: 1.25e-06 rev/day^2
Epoch rev: 49817
Checksum: 304
Satellite: AO-51
Catalog number: 28375
Epoch time: 13038.46972944
Element set: 480
Inclination: 098.1817 deg
RA of node: 359.2537 deg
Eccentricity: 0.0084563
Arg of perigee: 048.6470 deg
Mean anomaly: 312.1942 deg
Mean motion: 14.41064223 rev/day
Decay rate: 1.37e-06 rev/day^2
Epoch rev: 45265
Checksum: 318
Satellite: CP3
Catalog number: 31129
Epoch time: 13038.69272251
Element set: 385
Inclination: 097.8912 deg
RA of node: 038.7106 deg
Eccentricity: 0.0101436
Arg of perigee: 110.2542 deg
Mean anomaly: 250.9600 deg
Mean motion: 14.53449645 rev/day
Decay rate: 3.41e-06 rev/day^2
Epoch rev: 30818
Checksum: 279
Satellite: CO-65
Catalog number: 32785
Epoch time: 13038.21235823
Element set: 546
Inclination: 097.7690 deg
RA of node: 099.3705 deg
Eccentricity: 0.0014375
Arg of perigee: 019.2608 deg
Mean anomaly: 013.2022 deg
Mean motion: 14.83571012 rev/day
Decay rate: 8.83e-06 rev/day^2
Epoch rev: 25860
Checksum: 301
Satellite: PRISM
Catalog number: 33493
Epoch time: 13038.76220305
Element set: 514
Inclination: 098.1995 deg
RA of node: 191.6321 deg
Eccentricity: 0.0017416
Arg of perigee: 252.6627 deg
Mean anomaly: 107.2685 deg
Mean motion: 14.85230316 rev/day
Decay rate: 2.001e-05 rev/day^2
Epoch rev: 21870
Checksum: 276
Satellite: SOHLA-1
Catalog number: 33496
Epoch time: 13038.90809799
Element set: 963
Inclination: 098.1209 deg
RA of node: 155.3893 deg
Eccentricity: 0.0006608
Arg of perigee: 024.5538 deg
Mean anomaly: 123.7588 deg
Mean motion: 14.70182479 rev/day
Decay rate: 2.58e-06 rev/day^2
Epoch rev: 21687
Checksum: 346
Satellite: SO-67
Catalog number: 35870
Epoch time: 13038.90662128
Element set: 772
Inclination: 097.2079 deg
RA of node: 072.2981 deg
Eccentricity: 0.0003596
Arg of perigee: 067.0469 deg
Mean anomaly: 057.7626 deg
Mean motion: 15.25865973 rev/day
Decay rate: 3.292e-05 rev/day^2
Epoch rev: 18853
Checksum: 353
Satellite: TISAT-1
Catalog number: 36799
Epoch time: 13038.78046274
Element set: 786
Inclination: 098.0431 deg
RA of node: 122.7212 deg
Eccentricity: 0.0015508
Arg of perigee: 125.7375 deg
Mean anomaly: 234.5270 deg
Mean motion: 14.82833510 rev/day
Decay rate: 1.171e-05 rev/day^2
Epoch rev: 13939
Checksum: 302
Satellite: STUDSAT
Catalog number: 36801
Epoch time: 13037.27371032
Element set: 583
Inclination: 098.0579 deg
RA of node: 123.2758 deg
Eccentricity: 0.0012681
Arg of perigee: 113.6624 deg
Mean anomaly: 246.5929 deg
Mean motion: 14.86840287 rev/day
Decay rate: 3.562e-05 rev/day^2
Epoch rev: 13927
Checksum: 311
Satellite: FO-69
Catalog number: 37227
Epoch time: 13038.42836185
Element set: 0058
Inclination: 071.9705 deg
RA of node: 152.7470 deg
Eccentricity: 0.0018460
Arg of perigee: 244.0646 deg
Mean anomaly: 115.8598 deg
Mean motion: 14.77364497 rev/day
Decay rate: 4.14e-06 rev/day^2
Epoch rev: 00974
Checksum: 329
Satellite: FO-70
Catalog number: 37380
Epoch time: 13038.33870440
Element set: 0060
Inclination: 071.9743 deg
RA of node: 153.8051 deg
Eccentricity: 0.0018952
Arg of perigee: 241.3116 deg
Mean anomaly: 118.6150 deg
Mean motion: 14.77106771 rev/day
Decay rate: 4.19e-06 rev/day^2
Epoch rev: 00980
Checksum: 279
Satellite: ALMASAT-1
Catalog number: 38078
Epoch time: 13038.71777022
Element set: 983
Inclination: 069.4838 deg
RA of node: 139.9762 deg
Eccentricity: 0.0722766
Arg of perigee: 311.7761 deg
Mean anomaly: 042.3703 deg
Mean motion: 14.18735940 rev/day
Decay rate: 1.3499e-04 rev/day^2
Epoch rev: 5084
Checksum: 338
Satellite: XATCOBEO
Catalog number: 38082
Epoch time: 13038.67859267
Element set: 902
Inclination: 069.4862 deg
RA of node: 127.0249 deg
Eccentricity: 0.0643617
Arg of perigee: 304.6155 deg
Mean anomaly: 049.5931 deg
Mean motion: 14.39356414 rev/day
Decay rate: 3.5777e-04 rev/day^2
Epoch rev: 5119
Checksum: 331
/EX
SB KEPS @ AMSAT $ORB13038.W
Orbital Elements 13038.WEATHER
HR AMSAT ORBITAL ELEMENTS FOR WEATHER SATELLITES
FROM WA5QGD FORT WORTH,TX February 7, 2013
BID: ORB13038.W
TO ALL RADIO AMATEURS BT
Satellite: NOAA-10
Catalog number: 16969
Epoch time: 13038.17197361
Element set: 237
Inclination: 098.5592 deg
RA of node: 068.7614 deg
Eccentricity: 0.0011190
Arg of perigee: 264.3376 deg
Mean anomaly: 124.6805 deg
Mean motion: 14.27613455 rev/day
Decay rate: 3.9e-07 rev/day^2
Epoch rev: 37339
Checksum: 319
Satellite: NOAA-11
Catalog number: 19531
Epoch time: 13038.20085880
Element set: 235
Inclination: 098.7175 deg
RA of node: 124.2676 deg
Eccentricity: 0.0010165
Arg of perigee: 271.5209 deg
Mean anomaly: 141.0330 deg
Mean motion: 14.15001671 rev/day
Decay rate: 1.1e-07 rev/day^2
Epoch rev: 25774
Checksum: 257
